sat.trackr.live / text

‹ back to catalog

STARLINK-34572

NORAD 64720 · 2025-142AA

PAYLOAD ACTIVE UNKNOWN

§ Identity

Operator
Country
US
Launch date
2025-06-28
Launch site
AFWTR
Launch vehicle
Mass (kg)
RCS (m²)

Purposes: comms

External: N2YO · Heavens-Above · Gunter

§ Orbital elements

Epoch: 2026-09-20T04:28:50.535264Z

Period
94.14 min
Inclination
70.0002°
Eccentricity
0.0003008
Mean motion
15.29592141 rev/d
Perigee alt
475.0 km
Apogee alt
479.1 km
Semi-major
6,855.2 km
B*
3.4951e-4
RAAN
181.7055°
Arg perigee
272.0484°
Mean anomaly
88.0347°
Rev number
6,884

§ Raw data

STARLINK-345721 64720U 25142AA  26263.18669601  .00009936  00000+0  34951-3 0  99902 64720  70.0002 181.7055 0003008 272.0484  88.0347 15.29592141 68840

JSON: /api/v1/satellites/64720 · /tle

For live sub-satellite position, see the globe view (requires WebGL).

§ Visibility from observer

Set your observer location to see the next 7 days of passes ≥ 10°. The values pass through the URL so the page stays shareable.

No JS? Fill the form by hand. The geolocation button needs JavaScript.